Simultaneous Nadir Overpasses (SNOs) Predictions

Prediction of SNOs between GOES-17 and NOAA-20 Satellite Orbit:

Table of predicted SNOs for the next 14.0 days since TLE Epoch: 12/3/2022
Index Date Time (GOES-17) GOES-17 Lat,Lon NOAA-20 Lat,Lon Distance(km) Time Diff (sec)
1 12/03/2022 22:46:09 0.00,-137.32 -0.73,-140.55 368.53 80
2 12/04/2022 22:30:03 0.01,-137.31 0.29,-136.01 147.79 80
3 12/06/2022 10:51:50 -0.00,-137.31 0.91,-141.27 452.81 80
4 12/07/2022 10:30:24 -0.00,-137.30 -0.11,-136.74 63.07 80
5 12/09/2022 22:33:33 -0.01,-137.26 -0.09,-137.50 27.55 80
6 12/10/2022 22:17:27 -0.01,-137.25 0.93,-132.96 488.10 80
7 12/12/2022 10:39:14 0.02,-137.23 0.26,-138.22 113.78 80
8 12/13/2022 10:17:48 0.02,-137.21 -0.76,-133.69 401.30 80
9 12/14/2022 22:39:43 -0.02,-137.18 -0.45,-138.98 205.77 80
10 12/15/2022 22:23:37 -0.02,-137.16 0.58,-134.45 309.10 80
